Location: Cheching
(60.0667°N, 164.2167°W)
Time: 21:33:28
(UTC+00:00)

NOAA 15 - Pass Details

Date: 29 January 2021
Orbit: 798 x 812 km, 98.7° (Epoch: 07 March)

Event Time Altitude Azimuth Distance (km) Brightness Sun altitude
Rises 05:39:38 0° 173° (S) 3,308 7.7 -19.1°
Reaches altitude 10° 05:42:00 10° 177° (S) 2,383 7.0 -19.4°
Maximum altitude 05:47:12 60° 257° (WSW) 928 5.2 -20.0°
Drops below altitude 10° 05:52:28 10° 338° (NNW) 2,408 7.3 -20.7°
Sets 05:54:52 0° 342° (NNW) 3,346 8.1 -21.0°
